Location: *
(49.4547°N, 7.9131°E)
Time: 04:05:04
(UTC+00:00)

ASTEX 1 - Pass Details

Date: 22 September 2019
Orbit: 720 x 744 km, 92.7° (Epoch: 23 October)

Event Time Altitude Azimuth Distance (km) Brightness Sun altitude
Rises 19:07:47 0° 3° (N) 3,147 6.9 -16.8°
Reaches altitude 10° 19:10:05 10° 0° (N) 2,221 6.2 -17.2°
Maximum altitude 19:14:56 64° 280° (W) 802 3.8 -17.9°
Drops below altitude 10° 19:19:44 10° 200° (SSW) 2,206 5.8 -18.6°
Sets 19:22:02 0° 197° (SSW) 3,124 6.6 -19.0°
